Preview of NWS' New Version of Forecast
This preview is not operational and should not be used for support decisions.
Latest weather observations around

Fort Campbell U. S. Army Airfield (KHOP)

Using English Units (Switch to International System of Units)
Date/ Time (CDT) Wind (mph) Vis. (mi) Weather Sky Cond. Temp (°F) Rel. Humidity Wind Chill (°F) Heat Index (°F) Pressure Precip. (in)
Air Dwpt 6 hour Altimeter (inHg) Sea level (inHg) 1 hr 3 hr 6 hr
Max Min
Sep 21 20:56 Calm 10 Clear CLR 76 57     52%   76 30.14 30.13      
Sep 21 19:56 Calm 10 Clear CLR 78 57     48%   78 30.14 30.13      
Sep 21 18:56 SW 6 10 Clear CLR 81 56     41%   81 30.13 30.12      
Sep 21 17:56 SSW 7 10 Clear CLR 88 53     31%   86 30.13 30.12      
Sep 21 16:56 SSW 6 10 Clear CLR 89 51     27%   87 30.13 30.12      
Sep 21 15:56 SSW 6 10 Clear CLR 89 51     27%   87 30.14 30.13      
Sep 21 13:56 S 7 10 Clear CLR 89 52     28%   87 30.18 30.17      
Sep 21 13:47 S 15 10 Clear CLR 90 52     28%   87 30.18 30.17      
Sep 21 12:56 S 9 10 Clear CLR 89 51     28%   86 30.21 30.2      
Sep 21 10:56 SSW 10 10 Clear CLR 85 52     32%   83 30.26 30.25      
Sep 21 09:56 S 9 10 Clear CLR 81 54     39%   81 30.27 30.26      
Sep 21 08:56 S 8 10 Clear CLR 76 56     51%   76 30.27 30.26      
Sep 21 07:56 SSE 5 10 Clear CLR 70 59     67%   70 30.26 30.25      
Sep 21 06:56 SE 3 10 Clear CLR 67 60     78%     30.24 30.23      
Sep 21 05:56 SE 3 10 Clear CLR 69 60     75%     30.23 30.22      
Sep 21 04:56 SSE 3 10 Clear CLR 69 62     80%     30.21 30.2      
Sep 21 03:56 SE 5 10 Clear CLR 69 63     82%     30.21 30.2      
Sep 21 02:56 SE 3 10 Clear CLR 70 63     78%   71 30.2 30.19      
Sep 21 01:56 SSE 3 10 Clear CLR 73 62     69%   73 30.19 30.18      
Sep 21 00:56 Calm 10 Clear CLR 72 63     74%   72 30.19 30.18      
Sep 20 22:56 SE 6 10 Clear CLR 76 62     62%   77 30.18 30.17      
Sep 20 21:56 SE 5 10 Clear CLR 77 62     60%   77 30.18 30.17      
Sep 20 20:56 Calm 10 Clear CLR 79 63     57%   79 30.18 30.17      
Sep 20 19:56 SE 3 10 Clear CLR 82 60     48%   82 30.16 30.15      
Sep 20 18:56 SSE 5 10 Clear   83 60     46%   84 30.15 30.14      
Sep 20 17:56 S 6 10 Clear CLR 86 60     42%   86 30.14 30.13      
Sep 20 16:56 SW 6 10 Clear   88 59     38%   87 30.14 30.13      
Sep 20 15:56 SSW 9 10 Mostly Clear FEW060 89 59     37%   88 30.15 30.14      
Sep 20 14:56 S 8 10 Partly Cloudy SCT055 SCT200 87 59     38%   87 30.16 30.15      
Sep 20 13:56 SE 6 10 Mostly Clear FEW050 FEW200 87 59     39%   87 30.17 30.16      
Sep 20 12:56 S 8 10 Clear CLR 87 58     38%   86 30.19 30.18      
Sep 20 11:56 S 7 10 Clear CLR 83 56     40%   82 30.21 30.2      
Sep 20 10:56 S 9 10 Clear CLR 79 55     44%   78 30.21 30.2      
Sep 20 09:56 S 11 10 Clear CLR 79 55     44%   78 30.22 30.21      
Sep 20 08:56 S 11 10 Clear CLR 77 57     50%   77 30.21 30.2      
Sep 20 07:56 S 8 10 Clear CLR 73 58     60%   73 30.2 30.19      
Sep 20 06:56 SSE 6 10 Clear CLR 71 61     70%   71 30.19 30.18      
Sep 20 05:56 S 6 10 Clear CLR 71 62     74%   72 30.17 30.16      
Sep 20 04:56 SSE 6 10 Clear CLR 72 64     74%   73 30.15 30.14      
Sep 20 03:56 SE 5 10 Partly Cloudy SCT042 SCT055 73 65     77%   74 30.14 30.13      
Sep 20 02:56 SE 3 10 Mostly Clear FEW050 74 67     78%   75 30.13 30.12      
Sep 20 01:56 S 9 10 Clear CLR 76 67     74%   76 30.12 30.11      
Sep 20 00:56 SSE 6 10 Clear CLR 76 68     76%   77 30.1 30.09      
Sep 19 23:56 SSE 3 10 Clear CLR 77 68     74%   77 30.09 30.08      
Sep 19 22:56 SSE 5 10 Clear CLR 78 67     70%   79 30.09 30.08      
Sep 19 21:56 S 8 10 Clear CLR 80 67     63%   83 30.08 30.07      
Sep 19 20:56 SSE 6 10 Clear CLR 83 67     59%   85 30.06 30.05      
Sep 19 19:56 SE 3 10 Clear CLR 83 66     56%   86 30.04 30.03      
Sep 19 18:56 SE 5 10 Clear CLR 86 66     52%   88 30.03 30.02      
Sep 19 17:56 S 5 10 Clear CLR 89 63     43%   89 30.02 30.01      
Sep 19 16:56 SSE 7 10 Mostly Clear FEW060 90 63     41%   90 30.02 30.01      
Sep 19 15:56 SSW 6 10 Clear CLR 90 64     42%   91 30.03 30.02      
Sep 19 14:56 S 7 10 Mostly Clear FEW050 90 63     41%   91 30.05 30.04      
Sep 19 13:56 SSW 8 10 Mostly Clear FEW044 89 66     47%   92 30.07 30.06      
Sep 19 12:56 SSE 3 10 Mostly Clear FEW039 87 66     50%   90 30.08 30.07      
Sep 19 11:56 SSE 6 10 Clear CLR 85 66     53%   88 30.1 30.09      
Sep 19 10:56 SSW 9 10 Clear CLR 83 66     56%   86 30.1 30.09      
Sep 19 09:56 S 9 10 Clear CLR 79 66     65%   79 30.1 30.09      
Sep 19 08:56 SE 10 10 Clear CLR 75 66     73%   76 30.08 30.07      
Sep 19 07:56 SE 5 10 Clear CLR 71 66     85%   72 30.07 30.06      
Sep 19 06:56 ESE 5 10 Clear CLR 67 64     91%     30.06 30.05      
Sep 19 05:56 SE 5 10 Clear CLR 65 63     92%     30.04 30.03      
Sep 19 04:56 Calm 10 Clear CLR 62 61     96%     30.03 30.02      
Sep 19 03:56 Calm 10 Clear CLR 65 62     89%     30.02 30.01      
Sep 19 02:56 Calm 10 Clear CLR 66 62     85%     30.02 30.01      
Sep 19 01:56 Calm 10 Clear CLR 67 62     84%     30.02 30.01      
Sep 19 00:56 Calm 10 Clear CLR 68 62     81%     30.02 30.01      
Sep 18 23:56 Calm 10 Clear CLR 70 62     77%     30.02 30.01      
Sep 18 22:56 Calm 10 Clear CLR 72 61     69%   72 30.03 30.02      
Sep 18 21:56 Calm 10 Clear CLR 74 60     61%   74 30.02 30.01      
Sep 18 20:56 NE 5 10 Clear CLR 75 60     58%   75 30.01 30      
Sep 18 19:56 NNE 5 10 Clear CLR 77 60     57%   77 30.01 30      
Sep 18 18:56 NNE 5 10 Clear CLR 80 60     51%   81 29.99 29.98      
May 14 20:56 SW 3 10 Clear CLR 81 66     62%   83 29.93 29.92 0    
May 14 10:56 6 10 Clear CLR 85 68     57%   89 30.04 30.03      
Notice The following observation data may not be complete
May 13 21:56 SE 3 10 Clear CLR   64      %     30.03 30.02 0 0  
May 12 16:56 SW 10 10 Mostly Clear FEW055 84 63     49%   85 30.05 30.04      
May 11 14:56 SW 18 10 Clear CLR 86 58     39%   86 30.02 30.01      
Notice The following observation data may not be complete
May 11 13:19   10 Mostly Clear FEW150 FEW200          %              
Jun 11 11:58 SSW 13 10 Clear CLR 85 66     52%   88 30.12 30.11      
Jun 10 23:58 SSE 6 10 Clear CLR 73 61     66%   73 30.05 30.04      
Jun 10 20:58 SE 3 10 Clear CLR 77 61     57%   77 30.02 30.01      
Jun 10 14:58 SSW 9 10 Mostly Clear FEW055 81 59     47%   81 30.03 30.02      
Jun 10 13:58 SSW 14 10 Clear CLR 81 59     46%   82 30.04 30.03      
Jun 10 03:58 Calm 10 Clear CLR 61 57     87%     29.98 29.97      
Jun 10 02:58 Calm 10 Clear CLR 63 57     81%     29.97 29.96      
Jun 09 21:58 Calm 10 Clear CLR 71 55     57%   71 29.96 29.95      
Jun 08 23:58 Calm 10 Clear CLR 61 55     79%     29.94 29.93      
Jun 08 00:58 N 6 10 Clear CLR 58 54     88%     29.98 29.97      
Jun 07 16:58 NNE 13 10 Partly Cloudy FEW060 SCT200 75 55     49%   74 29.94 29.93      
Jun 07 12:58 N 10 10 Mostly Clear FEW160 77 53     44%   76 29.96 29.95      
Jun 07 11:58 NNE 13 10 Clear CLR 76 53     45%   76 29.96 29.96      
Jun 06 12:30 NNE 10 10 Mostly Cloudy FEW010 BKN016 75 70     83%   76 29.85 29.84      
Jun 06 05:38 Calm 0.25 Fog VV001 64 64     100%     29.83 29.82      
Jun 06 03:26 Calm 7 Clear CLR 66 66     100%     29.81 29.8      
Jun 06 02:58 Calm 9 Clear CLR 67 67     100%     29.81 29.8      
Notice The following observation data may not be complete
Jun 06 02:08   0.75 Fog/Mist VV001          %              
Notice The following observation data may not be complete
Jun 06 01:44   1 Fog/Mist CLR          %              
Notice The following observation data may not be complete
Jun 06 01:43   1 Fog/Mist CLR          %              
Notice The following observation data may not be complete
Jun 05 19:58   10 Mostly Clear FEW210          %              
Jun 05 17:41 Calm 10 Mostly Clear FEW180 77 68     74%   78 29.76 29.75      
Jun 05 16:58 Calm 10 Mostly Clear FEW170 76 68     76%   77 29.77 29.76      
Jun 05 13:58 E 5 10 Mostly Cloudy SCT016 BKN120 BKN170 BKN200 75 69     80%   76 29.8   0